Year,Month,Day,Hour,Minute,Value (Times are PST for temperature in C)
2009,02,12,00,00,0.80
2009,02,12,00,01,0.80
2009,02,12,00,02,0.80
2009,02,12,00,03,0.80
2009,02,12,00,04,0.80
2009,02,12,00,05,0.80
2009,02,12,00,06,0.70
2009,02,12,00,07,0.70
2009,02,12,00,08,0.70
2009,02,12,00,09,0.70
2009,02,12,00,10,0.70
2009,02,12,00,11,0.70
2009,02,12,00,12,0.70
2009,02,12,00,13,0.70
2009,02,12,00,14,0.80
2009,02,12,00,15,0.80
2009,02,12,00,16,0.80
2009,02,12,00,17,0.90
2009,02,12,00,18,0.90
2009,02,12,00,19,0.90
2009,02,12,00,20,0.90
2009,02,12,00,21,0.90
2009,02,12,00,22,0.90
2009,02,12,00,23,0.90
2009,02,12,00,24,0.90
2009,02,12,00,25,0.90
2009,02,12,00,26,0.90
2009,02,12,00,27,0.80
2009,02,12,00,28,0.80
2009,02,12,00,29,0.80
2009,02,12,00,30,0.80
2009,02,12,00,31,0.80
2009,02,12,00,32,0.80
2009,02,12,00,33,0.80
2009,02,12,00,34,0.80
2009,02,12,00,35,0.80
2009,02,12,00,36,0.80
2009,02,12,00,37,0.80
2009,02,12,00,38,0.80
2009,02,12,00,39,0.80
2009,02,12,00,40,0.80
2009,02,12,00,41,0.90
2009,02,12,00,42,0.90
2009,02,12,00,43,0.90
2009,02,12,00,44,0.90
2009,02,12,00,45,0.90
2009,02,12,00,46,0.90
2009,02,12,00,47,0.90
2009,02,12,00,48,0.90
2009,02,12,00,49,0.90
2009,02,12,00,50,0.90
2009,02,12,00,51,0.90
2009,02,12,00,52,0.90
2009,02,12,00,53,0.90
2009,02,12,00,54,0.90
2009,02,12,00,55,0.90
2009,02,12,00,56,0.90
2009,02,12,00,57,0.90
2009,02,12,00,58,0.90
2009,02,12,00,59,0.90
2009,02,12,01,00,0.90
2009,02,12,01,01,0.90
2009,02,12,01,02,0.90
2009,02,12,01,03,0.90
2009,02,12,01,04,0.90
2009,02,12,01,05,0.90
2009,02,12,01,06,1.00
2009,02,12,01,07,1.00
2009,02,12,01,08,1.00
2009,02,12,01,09,1.00
2009,02,12,01,10,1.10
2009,02,12,01,11,1.10
2009,02,12,01,12,1.10
2009,02,12,01,13,1.10
2009,02,12,01,14,1.10
2009,02,12,01,15,1.10
2009,02,12,01,16,1.10
2009,02,12,01,17,1.10
2009,02,12,01,18,1.10
2009,02,12,01,19,1.10
2009,02,12,01,20,1.10
2009,02,12,01,21,1.10
2009,02,12,01,22,1.10
2009,02,12,01,23,1.00
2009,02,12,01,24,1.00
2009,02,12,01,25,1.00
2009,02,12,01,26,1.00
2009,02,12,01,27,1.00
2009,02,12,01,28,1.00
2009,02,12,01,29,1.00
2009,02,12,01,30,1.00
2009,02,12,01,31,1.00
2009,02,12,01,32,1.00
2009,02,12,01,33,1.00
2009,02,12,01,34,1.00
2009,02,12,01,35,1.00
2009,02,12,01,36,1.00
2009,02,12,01,37,1.00
2009,02,12,01,38,1.00
2009,02,12,01,39,1.00
2009,02,12,01,40,1.00
2009,02,12,01,41,1.00
2009,02,12,01,42,1.00
2009,02,12,01,43,1.00
2009,02,12,01,44,1.00
2009,02,12,01,45,1.00
2009,02,12,01,46,1.00
2009,02,12,01,47,1.00
2009,02,12,01,48,1.00
2009,02,12,01,49,1.00
2009,02,12,01,50,1.00
2009,02,12,01,51,1.00
2009,02,12,01,52,1.00
2009,02,12,01,53,1.00
2009,02,12,01,54,1.00
2009,02,12,01,55,1.10
2009,02,12,01,56,1.10
2009,02,12,01,57,1.10
2009,02,12,01,58,1.10
2009,02,12,01,59,1.10
2009,02,12,02,00,1.10
2009,02,12,02,01,1.10
2009,02,12,02,02,1.10
2009,02,12,02,03,1.10
2009,02,12,02,04,1.10
2009,02,12,02,05,1.10
2009,02,12,02,06,1.10
2009,02,12,02,07,1.10
2009,02,12,02,08,1.10
2009,02,12,02,09,1.10
2009,02,12,02,10,1.10
2009,02,12,02,11,1.10
2009,02,12,02,12,1.10
2009,02,12,02,13,1.10
2009,02,12,02,14,1.10
2009,02,12,02,15,1.20
2009,02,12,02,16,1.20
2009,02,12,02,17,1.20
2009,02,12,02,18,1.20
2009,02,12,02,19,1.20
2009,02,12,02,20,1.20
2009,02,12,02,21,1.20
2009,02,12,02,22,1.20
2009,02,12,02,23,1.20
2009,02,12,02,24,1.20
2009,02,12,02,25,1.20
2009,02,12,02,26,1.20
2009,02,12,02,27,1.20
2009,02,12,02,28,1.10
2009,02,12,02,29,1.10
2009,02,12,02,30,1.10
2009,02,12,02,31,1.10
2009,02,12,02,32,1.10
2009,02,12,02,33,1.10
2009,02,12,02,34,1.10
2009,02,12,02,35,1.10
2009,02,12,02,36,1.10
2009,02,12,02,37,1.10
2009,02,12,02,38,1.10
2009,02,12,02,39,1.10
2009,02,12,02,40,1.10
2009,02,12,02,41,1.10
2009,02,12,02,42,1.20
2009,02,12,02,43,1.20
2009,02,12,02,44,1.20
2009,02,12,02,45,1.20
2009,02,12,02,46,1.20
2009,02,12,02,47,1.20
2009,02,12,02,48,1.10
2009,02,12,02,49,1.10
2009,02,12,02,50,1.10
2009,02,12,02,51,1.10
2009,02,12,02,52,1.10
2009,02,12,02,53,1.00
2009,02,12,02,54,1.00
2009,02,12,02,55,1.00
2009,02,12,02,56,1.00
2009,02,12,02,57,1.00
2009,02,12,02,58,1.00
2009,02,12,02,59,1.00
2009,02,12,03,00,1.00
2009,02,12,03,01,1.00
2009,02,12,03,02,1.00
2009,02,12,03,03,1.00
2009,02,12,03,04,1.00
2009,02,12,03,05,1.00
2009,02,12,03,06,1.00
2009,02,12,03,07,1.00
2009,02,12,03,08,1.00
2009,02,12,03,09,0.90
2009,02,12,03,10,0.90
2009,02,12,03,11,0.90
2009,02,12,03,12,0.90
2009,02,12,03,13,0.90
2009,02,12,03,14,0.90
2009,02,12,03,15,0.90
2009,02,12,03,16,0.90
2009,02,12,03,17,0.90
2009,02,12,03,18,0.90
2009,02,12,03,19,0.90
2009,02,12,03,20,0.90
2009,02,12,03,21,0.90
2009,02,12,03,22,0.90
2009,02,12,03,23,0.90
2009,02,12,03,24,0.80
2009,02,12,03,25,0.80
2009,02,12,03,26,0.80
2009,02,12,03,27,0.80
2009,02,12,03,28,0.80
2009,02,12,03,29,0.90
2009,02,12,03,30,0.90
2009,02,12,03,31,0.90
2009,02,12,03,32,0.90
2009,02,12,03,33,0.90
2009,02,12,03,34,0.90
2009,02,12,03,35,0.90
2009,02,12,03,36,0.90
2009,02,12,03,37,0.90
2009,02,12,03,38,0.90
2009,02,12,03,39,0.90
2009,02,12,03,40,0.90
2009,02,12,03,41,0.90
2009,02,12,03,42,1.00
2009,02,12,03,43,1.00
2009,02,12,03,44,1.00
2009,02,12,03,45,1.00
2009,02,12,03,46,1.00
2009,02,12,03,47,1.00
2009,02,12,03,48,1.00
2009,02,12,03,49,1.00
2009,02,12,03,50,1.00
2009,02,12,03,51,1.10
2009,02,12,03,52,1.10
2009,02,12,03,53,1.10
2009,02,12,03,54,1.10
2009,02,12,03,55,1.10
2009,02,12,03,56,1.10
2009,02,12,03,57,1.10
2009,02,12,03,58,1.10
2009,02,12,03,59,1.10
2009,02,12,04,00,1.10
2009,02,12,04,01,1.10
2009,02,12,04,02,1.00
2009,02,12,04,03,0.90
2009,02,12,04,05,0.90
2009,02,12,04,06,0.90
2009,02,12,04,09,0.90
2009,02,12,04,12,0.90
2009,02,12,04,15,0.90
2009,02,12,04,18,0.90
2009,02,12,04,21,1.00
2009,02,12,04,24,1.00
2009,02,12,04,27,1.00
2009,02,12,04,30,1.00
2009,02,12,04,33,0.90
2009,02,12,04,35,1.00
2009,02,12,04,36,1.00
2009,02,12,04,37,1.00
2009,02,12,04,38,1.00
2009,02,12,04,39,0.90
2009,02,12,04,40,1.00
2009,02,12,04,41,0.90
2009,02,12,04,42,0.90
2009,02,12,04,43,0.90
2009,02,12,04,44,0.90
2009,02,12,04,45,0.90
2009,02,12,04,47,0.90
2009,02,12,04,48,0.90
2009,02,12,04,49,0.90
2009,02,12,04,50,0.90
2009,02,12,04,51,0.90
2009,02,12,04,52,0.80
2009,02,12,04,53,0.80
2009,02,12,04,54,0.80
2009,02,12,04,55,0.80
2009,02,12,04,56,0.80
2009,02,12,04,57,0.80
2009,02,12,04,58,0.80
2009,02,12,04,59,0.80
2009,02,12,05,00,0.80
2009,02,12,05,01,0.80
2009,02,12,05,02,0.80
2009,02,12,05,03,0.80
2009,02,12,05,04,0.80
2009,02,12,05,05,0.80
2009,02,12,05,06,0.80
2009,02,12,05,07,0.70
2009,02,12,05,08,0.70
2009,02,12,05,09,0.70
2009,02,12,05,10,0.70
2009,02,12,05,11,0.70
2009,02,12,05,12,0.60
2009,02,12,05,13,0.60
2009,02,12,05,14,0.60
2009,02,12,05,15,0.60
2009,02,12,05,16,0.60
2009,02,12,05,17,0.50
2009,02,12,05,18,0.50
2009,02,12,05,19,0.50
2009,02,12,05,20,0.40
2009,02,12,05,21,0.40
2009,02,12,05,22,0.30
2009,02,12,05,23,0.30
2009,02,12,05,24,0.40
2009,02,12,05,25,0.50
2009,02,12,05,26,0.70
2009,02,12,05,27,0.80
2009,02,12,05,28,0.90
2009,02,12,05,29,1.00
2009,02,12,05,30,1.00
2009,02,12,05,31,1.00
2009,02,12,05,32,0.90
2009,02,12,05,33,0.90
2009,02,12,05,34,0.90
2009,02,12,05,35,0.80
2009,02,12,05,36,0.80
2009,02,12,05,37,0.80
2009,02,12,05,38,0.70
2009,02,12,05,39,0.70
2009,02,12,05,40,0.60
2009,02,12,05,41,0.60
2009,02,12,05,42,0.50
2009,02,12,05,43,0.40
2009,02,12,05,44,0.40
2009,02,12,05,45,0.40
2009,02,12,05,46,0.30
2009,02,12,05,47,0.30
2009,02,12,05,48,0.30
2009,02,12,05,49,0.20
2009,02,12,05,50,0.20
2009,02,12,05,51,0.20
2009,02,12,05,52,0.20
2009,02,12,05,53,0.20
2009,02,12,05,54,0.20
2009,02,12,05,55,0.20
2009,02,12,05,56,0.20
2009,02,12,05,57,0.20
2009,02,12,05,58,0.20
2009,02,12,05,59,0.20
2009,02,12,06,00,0.20
2009,02,12,06,01,0.20
2009,02,12,06,02,0.20
2009,02,12,06,03,0.10
2009,02,12,06,04,0.10
2009,02,12,06,05,0.10
2009,02,12,06,06,0.10
2009,02,12,06,07,0.10
2009,02,12,06,08,0.10
2009,02,12,06,09,0.00
2009,02,12,06,10,0.00
2009,02,12,06,11,0.00
2009,02,12,06,12,0.00
2009,02,12,06,13,0.00
2009,02,12,06,14,0.00
2009,02,12,06,15,0.00
2009,02,12,06,16,0.00
2009,02,12,06,17,0.00
2009,02,12,06,18,0.10
2009,02,12,06,19,0.10
2009,02,12,06,20,0.10
2009,02,12,06,21,0.10
2009,02,12,06,22,0.10
2009,02,12,06,23,0.10
2009,02,12,06,24,0.10
2009,02,12,06,25,0.10
2009,02,12,06,26,0.00
2009,02,12,06,27,0.00
2009,02,12,06,28,0.00
2009,02,12,06,29,0.00
2009,02,12,06,30,0.00
2009,02,12,06,31,0.00
2009,02,12,06,32,-0.10
2009,02,12,06,33,-0.10
2009,02,12,06,34,-0.10
2009,02,12,06,35,-0.10
2009,02,12,06,36,-0.10
2009,02,12,06,37,-0.10
2009,02,12,06,38,0.00
2009,02,12,06,39,0.00
2009,02,12,06,40,-0.10
2009,02,12,06,41,-0.10
2009,02,12,06,42,-0.10
2009,02,12,06,43,-0.10
2009,02,12,06,44,-0.10
2009,02,12,06,45,0.00
2009,02,12,06,46,0.00
2009,02,12,06,47,0.00
2009,02,12,06,48,-0.10
2009,02,12,06,49,-0.10
2009,02,12,06,50,-0.10
2009,02,12,06,51,-0.10
2009,02,12,06,52,0.00
2009,02,12,06,53,0.00
2009,02,12,06,54,0.00
2009,02,12,06,55,0.10
2009,02,12,06,56,0.10
2009,02,12,06,57,0.10
2009,02,12,06,58,0.10
2009,02,12,06,59,0.10
2009,02,12,07,00,0.10
2009,02,12,07,01,0.10
2009,02,12,07,02,0.20
2009,02,12,07,03,0.20
2009,02,12,07,04,0.20
2009,02,12,07,05,0.20
2009,02,12,07,06,0.20
2009,02,12,07,07,0.20
2009,02,12,07,08,0.20
2009,02,12,07,09,0.20
2009,02,12,07,10,0.20
2009,02,12,07,11,0.20
2009,02,12,07,12,0.20
2009,02,12,07,13,0.10
2009,02,12,07,14,0.10
2009,02,12,07,15,0.10
2009,02,12,07,16,0.10
2009,02,12,07,17,0.10
2009,02,12,07,18,0.10
2009,02,12,07,19,0.00
2009,02,12,07,20,0.00
2009,02,12,07,21,0.00
2009,02,12,07,22,-0.10
2009,02,12,07,23,-0.10
2009,02,12,07,24,-0.10
2009,02,12,07,25,0.00
2009,02,12,07,26,0.00
2009,02,12,07,27,0.00
2009,02,12,07,28,0.00
2009,02,12,07,29,0.00
2009,02,12,07,30,0.00
2009,02,12,07,31,0.00
2009,02,12,07,32,0.00
2009,02,12,07,33,0.00
2009,02,12,07,34,0.00
2009,02,12,07,35,0.00
2009,02,12,07,36,0.00
2009,02,12,07,37,0.00
2009,02,12,07,38,0.00
2009,02,12,07,39,0.00
2009,02,12,07,40,0.00
2009,02,12,07,41,0.00
2009,02,12,07,42,0.00
2009,02,12,07,43,0.10
2009,02,12,07,44,0.10
2009,02,12,07,45,0.10
2009,02,12,07,46,0.10
2009,02,12,07,47,0.10
2009,02,12,07,48,0.10
2009,02,12,07,49,0.10
2009,02,12,07,50,0.10
2009,02,12,07,51,0.10
2009,02,12,07,52,0.10
2009,02,12,07,53,0.10
2009,02,12,07,54,0.10
2009,02,12,07,55,0.10
2009,02,12,07,56,0.10
2009,02,12,07,57,0.10
2009,02,12,07,58,0.10
2009,02,12,07,59,0.10
2009,02,12,08,00,0.20
2009,02,12,08,01,0.20
2009,02,12,08,02,0.20
2009,02,12,08,03,0.20
2009,02,12,08,04,0.20
2009,02,12,08,05,0.20
2009,02,12,08,06,0.20
2009,02,12,08,07,0.20
2009,02,12,08,08,0.20
2009,02,12,08,09,0.30
2009,02,12,08,10,0.30
2009,02,12,08,11,0.30
2009,02,12,08,12,0.30
2009,02,12,08,13,0.40
2009,02,12,08,14,0.40
2009,02,12,08,15,0.40
2009,02,12,08,16,0.50
2009,02,12,08,17,0.50
2009,02,12,08,18,0.60
2009,02,12,08,19,0.60
2009,02,12,08,20,0.70
2009,02,12,08,21,0.70
2009,02,12,08,22,0.70
2009,02,12,08,23,0.70
2009,02,12,08,24,0.70
2009,02,12,08,25,0.70
2009,02,12,08,26,0.70
2009,02,12,08,27,0.70
2009,02,12,08,28,0.70
2009,02,12,08,29,0.60
2009,02,12,08,30,0.60
2009,02,12,08,31,0.60
2009,02,12,08,32,0.60
2009,02,12,08,33,0.50
2009,02,12,08,34,0.50
2009,02,12,08,35,0.50
2009,02,12,08,36,0.50
2009,02,12,08,37,0.50
2009,02,12,08,38,0.50
2009,02,12,08,39,0.60
2009,02,12,08,40,0.60
2009,02,12,08,41,0.60
2009,02,12,08,42,0.60
2009,02,12,08,43,0.60
2009,02,12,08,44,0.70
2009,02,12,08,45,0.70
2009,02,12,08,46,0.70
2009,02,12,08,47,0.70
2009,02,12,08,48,0.70
2009,02,12,08,49,0.80
2009,02,12,08,50,0.80
2009,02,12,08,51,0.80
2009,02,12,08,52,0.80
2009,02,12,08,53,0.90
2009,02,12,08,54,0.90
2009,02,12,08,55,1.00
2009,02,12,08,56,1.00
2009,02,12,08,57,1.10
2009,02,12,08,58,1.10
2009,02,12,08,59,1.10
2009,02,12,09,00,1.10
2009,02,12,09,01,1.20
2009,02,12,09,02,1.20
2009,02,12,09,03,1.20
2009,02,12,09,04,1.20
2009,02,12,09,05,1.10
2009,02,12,09,06,1.10
2009,02,12,09,07,1.10
2009,02,12,09,08,1.10
2009,02,12,09,09,1.10
2009,02,12,09,10,1.10
2009,02,12,09,11,1.10
2009,02,12,09,12,1.10
2009,02,12,09,13,1.10
2009,02,12,09,14,1.10
2009,02,12,09,15,1.10
2009,02,12,09,16,1.10
2009,02,12,09,17,1.10
2009,02,12,09,18,1.10
2009,02,12,09,19,1.10
2009,02,12,09,20,1.10
2009,02,12,09,21,1.10
2009,02,12,09,22,1.20
2009,02,12,09,23,1.20
2009,02,12,09,24,1.20
2009,02,12,09,25,1.20
2009,02,12,09,26,1.30
2009,02,12,09,27,1.30
2009,02,12,09,28,1.30
2009,02,12,09,29,1.30
2009,02,12,09,30,1.40
2009,02,12,09,31,1.50
2009,02,12,09,32,1.60
2009,02,12,09,33,1.60
2009,02,12,09,34,1.70
2009,02,12,09,35,1.70
2009,02,12,09,36,1.80
2009,02,12,09,37,1.80
2009,02,12,09,38,1.80
2009,02,12,09,39,1.90
2009,02,12,09,40,2.00
2009,02,12,09,41,2.00
2009,02,12,09,42,2.10
2009,02,12,09,43,2.10
2009,02,12,09,44,2.20
2009,02,12,09,45,2.20
2009,02,12,09,46,2.30
2009,02,12,09,47,2.30
2009,02,12,09,48,2.40
2009,02,12,09,49,2.40
2009,02,12,09,50,2.50
2009,02,12,09,51,2.50
2009,02,12,09,52,2.60
2009,02,12,09,53,2.60
2009,02,12,09,54,2.60
2009,02,12,09,55,2.70
2009,02,12,09,56,2.70
2009,02,12,09,57,2.70
2009,02,12,09,58,2.80
2009,02,12,09,59,2.80
2009,02,12,10,00,2.80
2009,02,12,10,01,2.90
2009,02,12,10,02,2.90
2009,02,12,10,03,3.00
2009,02,12,10,04,3.00
2009,02,12,10,05,3.00
2009,02,12,10,06,3.10
2009,02,12,10,07,3.10
2009,02,12,10,08,3.10
2009,02,12,10,09,3.20
2009,02,12,10,10,3.20
2009,02,12,10,11,3.30
2009,02,12,10,12,3.30
2009,02,12,10,13,3.40
2009,02,12,10,14,3.50
2009,02,12,10,15,3.50
2009,02,12,10,16,3.60
2009,02,12,10,17,3.70
2009,02,12,10,18,3.70
2009,02,12,10,19,3.80
2009,02,12,10,20,3.80
2009,02,12,10,21,3.80
2009,02,12,10,22,3.90
2009,02,12,10,23,3.90
2009,02,12,10,24,4.00
2009,02,12,10,25,4.10
2009,02,12,10,26,4.10
2009,02,12,10,27,4.10
2009,02,12,10,28,4.10
2009,02,12,10,29,4.10
2009,02,12,10,30,4.10
2009,02,12,10,31,4.10
2009,02,12,10,32,4.20
2009,02,12,10,33,4.20
2009,02,12,10,34,4.20
2009,02,12,10,35,4.30
2009,02,12,10,36,4.30
2009,02,12,10,37,4.30
2009,02,12,10,38,4.30
2009,02,12,10,39,4.40
2009,02,12,10,40,4.40
2009,02,12,10,41,4.40
2009,02,12,10,42,4.40
2009,02,12,10,43,4.40
2009,02,12,10,44,4.40
2009,02,12,10,45,4.40
2009,02,12,10,46,4.40
2009,02,12,10,47,4.40
2009,02,12,10,48,4.40
2009,02,12,10,49,4.40
2009,02,12,10,50,4.50
2009,02,12,10,51,4.50
2009,02,12,10,52,4.50
2009,02,12,10,53,4.50
2009,02,12,10,54,4.50
2009,02,12,10,55,4.50
2009,02,12,10,56,4.50
2009,02,12,10,57,4.60
2009,02,12,10,58,4.60
2009,02,12,10,59,4.60
2009,02,12,11,00,4.60
2009,02,12,11,01,4.70
2009,02,12,11,02,4.70
2009,02,12,11,03,4.70
2009,02,12,11,04,4.70
2009,02,12,11,05,4.80
2009,02,12,11,06,4.80
2009,02,12,11,07,4.80
2009,02,12,11,08,4.80
2009,02,12,11,09,4.80
2009,02,12,11,10,4.80
2009,02,12,11,11,4.80
2009,02,12,11,12,4.80
2009,02,12,11,13,4.80
2009,02,12,11,14,4.90
2009,02,12,11,15,4.90
2009,02,12,11,16,4.90
2009,02,12,11,17,4.90
2009,02,12,11,18,4.90
2009,02,12,11,19,4.90
2009,02,12,11,20,5.00
2009,02,12,11,21,4.90
2009,02,12,11,22,4.90
2009,02,12,11,23,4.90
2009,02,12,11,24,4.90
2009,02,12,11,25,4.90
2009,02,12,11,26,4.90
2009,02,12,11,27,4.90
2009,02,12,11,28,4.90
2009,02,12,11,29,4.90
2009,02,12,11,30,5.00
2009,02,12,11,31,5.00
2009,02,12,11,32,5.00
2009,02,12,11,33,5.10
2009,02,12,11,34,5.10
2009,02,12,11,35,5.10
2009,02,12,11,36,5.00
2009,02,12,11,37,5.00
2009,02,12,11,38,5.00
2009,02,12,11,39,5.00
2009,02,12,11,40,5.10
2009,02,12,11,41,5.10
2009,02,12,11,42,5.10
2009,02,12,11,43,5.10
2009,02,12,11,44,5.10
2009,02,12,11,45,5.10
2009,02,12,11,46,5.10
2009,02,12,11,47,5.10
2009,02,12,11,48,5.10
2009,02,12,11,49,5.10
2009,02,12,11,50,5.10
2009,02,12,11,51,5.10
2009,02,12,11,52,5.10
2009,02,12,11,53,5.10
2009,02,12,11,54,5.20
2009,02,12,11,55,5.20
2009,02,12,11,56,5.30
2009,02,12,11,57,5.30
2009,02,12,11,58,5.40
2009,02,12,11,59,5.40
2009,02,12,12,00,5.40
2009,02,12,12,01,5.40
2009,02,12,12,02,5.40
2009,02,12,12,03,5.40
2009,02,12,12,04,5.40
2009,02,12,12,05,5.40
2009,02,12,12,06,5.40
2009,02,12,12,07,5.40
2009,02,12,12,08,5.40
2009,02,12,12,09,5.40
2009,02,12,12,10,5.40
2009,02,12,12,11,5.30
2009,02,12,12,12,5.30
2009,02,12,12,13,5.30
2009,02,12,12,14,5.30
2009,02,12,12,15,5.30
2009,02,12,12,16,5.30
2009,02,12,12,17,5.30
2009,02,12,12,18,5.40
2009,02,12,12,19,5.50
2009,02,12,12,20,5.50
2009,02,12,12,21,5.50
2009,02,12,12,22,5.50
2009,02,12,12,23,5.50
2009,02,12,12,24,5.50
2009,02,12,12,25,5.60
2009,02,12,12,26,5.60
2009,02,12,12,27,5.70
2009,02,12,12,28,5.70
2009,02,12,12,29,5.60
2009,02,12,12,30,5.60
2009,02,12,12,31,5.60
2009,02,12,12,32,5.60
2009,02,12,12,33,5.60
2009,02,12,12,34,5.60
2009,02,12,12,35,5.60
2009,02,12,12,36,5.60
2009,02,12,12,37,5.60
2009,02,12,12,38,5.60
2009,02,12,12,39,5.60
2009,02,12,12,40,5.60
2009,02,12,12,41,5.60
2009,02,12,12,42,5.50
2009,02,12,12,43,5.50
2009,02,12,12,44,5.60
2009,02,12,12,45,5.60
2009,02,12,12,46,5.60
2009,02,12,12,47,5.60
2009,02,12,12,48,5.60
2009,02,12,12,49,5.60
2009,02,12,12,50,5.50
2009,02,12,12,51,5.60
2009,02,12,12,52,5.60
2009,02,12,12,53,5.60
2009,02,12,12,54,5.60
2009,02,12,12,55,5.60
2009,02,12,12,56,5.60
2009,02,12,12,57,5.60
2009,02,12,12,58,5.60
2009,02,12,12,59,5.60
2009,02,12,13,00,5.60
2009,02,12,13,01,5.60
2009,02,12,13,02,5.60
2009,02,12,13,03,5.60
2009,02,12,13,04,5.70
2009,02,12,13,05,5.80
2009,02,12,13,06,5.80
2009,02,12,13,07,5.80
2009,02,12,13,08,5.80
2009,02,12,13,09,5.80
2009,02,12,13,10,5.90
2009,02,12,13,11,5.90
2009,02,12,13,12,5.90
2009,02,12,13,13,5.90
2009,02,12,13,14,5.80
2009,02,12,13,15,5.80
2009,02,12,13,16,5.70
2009,02,12,13,17,5.70
2009,02,12,13,18,5.70
2009,02,12,13,19,5.70
2009,02,12,13,20,5.70
2009,02,12,13,21,5.80
2009,02,12,13,22,5.70
2009,02,12,13,23,5.70
2009,02,12,13,24,5.70
2009,02,12,13,25,5.70
2009,02,12,13,26,5.60
2009,02,12,13,27,5.60
2009,02,12,13,28,5.60
2009,02,12,13,29,5.60
2009,02,12,13,30,5.60
2009,02,12,13,31,5.60
2009,02,12,13,32,5.60
2009,02,12,13,33,5.60
2009,02,12,13,34,5.60
2009,02,12,13,35,5.60
2009,02,12,13,36,5.50
2009,02,12,13,37,5.50
2009,02,12,13,38,5.50
2009,02,12,13,39,5.40
2009,02,12,13,40,5.40
2009,02,12,13,41,5.40
2009,02,12,13,42,5.40
2009,02,12,13,43,5.40
2009,02,12,13,44,5.40
2009,02,12,13,45,5.40
2009,02,12,13,46,5.40
2009,02,12,13,47,5.40
2009,02,12,13,48,5.30
2009,02,12,13,49,5.30
2009,02,12,13,50,5.30
2009,02,12,13,51,5.20
2009,02,12,13,52,5.20
2009,02,12,13,53,5.10
2009,02,12,13,54,5.10
2009,02,12,13,55,5.10
2009,02,12,13,56,5.10
2009,02,12,13,57,5.10
2009,02,12,13,58,5.20
2009,02,12,13,59,5.20
2009,02,12,14,00,5.20
2009,02,12,14,01,5.20
2009,02,12,14,02,5.20
2009,02,12,14,03,5.20
2009,02,12,14,04,5.20
2009,02,12,14,05,5.20
2009,02,12,14,06,5.20
2009,02,12,14,07,5.20
2009,02,12,14,08,5.20
2009,02,12,14,09,5.20
2009,02,12,14,10,5.20
2009,02,12,14,11,5.20
2009,02,12,14,12,5.20
2009,02,12,14,13,5.20
2009,02,12,14,14,5.20
2009,02,12,14,15,5.20
2009,02,12,14,16,5.20
2009,02,12,14,17,5.20
2009,02,12,14,18,5.20
2009,02,12,14,19,5.20
2009,02,12,14,20,5.20
2009,02,12,14,21,5.20
2009,02,12,14,22,5.20
2009,02,12,14,23,5.30
2009,02,12,14,24,5.30
2009,02,12,14,25,5.30
2009,02,12,14,26,5.30
2009,02,12,14,27,5.30
2009,02,12,14,28,5.30
2009,02,12,14,29,5.30
2009,02,12,14,30,5.30
2009,02,12,14,31,5.30
2009,02,12,14,32,5.30
2009,02,12,14,33,5.30
2009,02,12,14,34,5.30
2009,02,12,14,35,5.30
2009,02,12,14,36,5.30
2009,02,12,14,37,5.30
2009,02,12,14,38,5.30
2009,02,12,14,39,5.30
2009,02,12,14,40,5.30
2009,02,12,14,41,5.30
2009,02,12,14,42,5.30
2009,02,12,14,43,5.30
2009,02,12,14,44,5.30
2009,02,12,14,45,5.20
2009,02,12,14,46,5.20
2009,02,12,14,47,5.20
2009,02,12,14,48,5.20
2009,02,12,14,49,5.20
2009,02,12,14,50,5.20
2009,02,12,14,51,5.20
2009,02,12,14,52,5.20
2009,02,12,14,53,5.20
2009,02,12,14,54,5.30
2009,02,12,14,55,5.30
2009,02,12,14,56,5.40
2009,02,12,14,57,5.50
2009,02,12,14,58,5.60
2009,02,12,14,59,5.60
2009,02,12,15,00,5.60
2009,02,12,15,01,5.60
2009,02,12,15,02,5.60
2009,02,12,15,03,5.60
2009,02,12,15,04,5.60
2009,02,12,15,05,5.60
2009,02,12,15,06,5.60
2009,02,12,15,07,5.60
2009,02,12,15,08,5.70
2009,02,12,15,09,5.70
2009,02,12,15,10,5.70
2009,02,12,15,11,5.70
2009,02,12,15,12,5.70
2009,02,12,15,13,5.70
2009,02,12,15,14,5.70
2009,02,12,15,15,5.70
2009,02,12,15,16,5.80
2009,02,12,15,17,5.80
2009,02,12,15,18,5.80
2009,02,12,15,19,5.80
2009,02,12,15,20,5.80
2009,02,12,15,21,5.90
2009,02,12,15,22,5.90
2009,02,12,15,23,5.90
2009,02,12,15,24,5.90
2009,02,12,15,25,5.90
2009,02,12,15,26,5.90
2009,02,12,15,27,6.00
2009,02,12,15,28,6.00
2009,02,12,15,29,6.00
2009,02,12,15,30,6.10
2009,02,12,15,31,6.10
2009,02,12,15,32,6.10
2009,02,12,15,33,6.10
2009,02,12,15,34,6.10
2009,02,12,15,35,6.10
2009,02,12,15,36,6.20
2009,02,12,15,37,6.20
2009,02,12,15,38,6.20
2009,02,12,15,39,6.20
2009,02,12,15,40,6.30
2009,02,12,15,41,6.30
2009,02,12,15,42,6.30
2009,02,12,15,43,6.30
2009,02,12,15,44,6.30
2009,02,12,15,45,6.30
2009,02,12,15,46,6.20
2009,02,12,15,47,6.20
2009,02,12,15,48,6.20
2009,02,12,15,49,6.20
2009,02,12,15,50,6.20
2009,02,12,15,51,6.20
2009,02,12,15,52,6.10
2009,02,12,15,53,6.10
2009,02,12,15,54,6.00
2009,02,12,15,55,5.90
2009,02,12,15,56,5.80
2009,02,12,15,57,5.80
2009,02,12,15,58,5.80
2009,02,12,15,59,5.80
2009,02,12,16,00,5.80
2009,02,12,16,01,5.80
2009,02,12,16,02,5.80
2009,02,12,16,03,5.80
2009,02,12,16,04,5.80
2009,02,12,16,05,5.80
2009,02,12,16,06,5.80
2009,02,12,16,07,5.80
2009,02,12,16,08,5.80
2009,02,12,16,09,5.80
2009,02,12,16,10,5.80
2009,02,12,16,11,5.80
2009,02,12,16,12,5.80
2009,02,12,16,13,5.80
2009,02,12,16,14,5.80
2009,02,12,16,15,5.80
2009,02,12,16,16,5.80
2009,02,12,16,17,5.80
2009,02,12,16,18,5.80
2009,02,12,16,19,5.80
2009,02,12,16,20,5.80
2009,02,12,16,21,5.70
2009,02,12,16,22,5.70
2009,02,12,16,23,5.70
2009,02,12,16,24,5.60
2009,02,12,16,25,5.60
2009,02,12,16,26,5.60
2009,02,12,16,27,5.60
2009,02,12,16,28,5.50
2009,02,12,16,29,5.50
2009,02,12,16,30,5.40
2009,02,12,16,31,5.40
2009,02,12,16,32,5.40
2009,02,12,16,33,5.40
2009,02,12,16,34,5.30
2009,02,12,16,35,5.30
2009,02,12,16,36,5.30
2009,02,12,16,37,5.30
2009,02,12,16,38,5.30
2009,02,12,16,39,5.30
2009,02,12,16,40,5.30
2009,02,12,16,41,5.30
2009,02,12,16,42,5.30
2009,02,12,16,43,5.20
2009,02,12,16,44,5.20
2009,02,12,16,45,5.20
2009,02,12,16,46,5.20
2009,02,12,16,47,5.20
2009,02,12,16,48,5.20
2009,02,12,16,49,5.20
2009,02,12,16,50,5.20
2009,02,12,16,51,5.20
2009,02,12,16,52,5.20
2009,02,12,16,53,5.20
2009,02,12,16,54,5.20
2009,02,12,16,55,5.20
2009,02,12,16,56,5.20
2009,02,12,16,57,5.20
2009,02,12,16,58,5.20
2009,02,12,16,59,5.20
2009,02,12,17,00,5.20
2009,02,12,17,01,5.20
2009,02,12,17,02,5.10
2009,02,12,17,03,5.10
2009,02,12,17,04,5.10
2009,02,12,17,05,5.10
2009,02,12,17,06,5.10
2009,02,12,17,07,5.10
2009,02,12,17,08,5.10
2009,02,12,17,09,5.10
2009,02,12,17,10,5.10
2009,02,12,17,11,5.10
2009,02,12,17,12,5.10
2009,02,12,17,13,5.10
2009,02,12,17,14,5.10
2009,02,12,17,15,5.10
2009,02,12,17,16,5.10
2009,02,12,17,17,5.10
2009,02,12,17,18,5.10
2009,02,12,17,19,5.10
2009,02,12,17,20,5.10
2009,02,12,17,21,5.10
2009,02,12,17,22,5.10
2009,02,12,17,23,5.00
2009,02,12,17,24,5.00
2009,02,12,17,25,4.90
2009,02,12,17,26,4.90
2009,02,12,17,27,4.80
2009,02,12,17,28,4.80
2009,02,12,17,29,4.80
2009,02,12,17,30,4.80
2009,02,12,17,31,4.70
2009,02,12,17,32,4.70
2009,02,12,17,33,4.70
2009,02,12,17,34,4.60
2009,02,12,17,35,4.60
2009,02,12,17,36,4.50
2009,02,12,17,37,4.50
2009,02,12,17,38,4.50
2009,02,12,17,39,4.40
2009,02,12,17,40,4.40
2009,02,12,17,41,4.40
2009,02,12,17,42,4.30
2009,02,12,17,43,4.30
2009,02,12,17,44,4.30
2009,02,12,17,45,4.30
2009,02,12,17,46,4.30
2009,02,12,17,47,4.20
2009,02,12,17,48,4.20
2009,02,12,17,49,4.20
2009,02,12,17,50,4.20
2009,02,12,17,51,4.20
2009,02,12,17,52,4.10
2009,02,12,17,53,4.10
2009,02,12,17,54,4.10
2009,02,12,17,55,4.00
2009,02,12,17,56,3.90
2009,02,12,17,57,3.80
2009,02,12,17,58,3.80
2009,02,12,17,59,3.80
2009,02,12,18,00,3.80
2009,02,12,18,01,3.70
2009,02,12,18,02,3.70
2009,02,12,18,03,3.70
2009,02,12,18,04,3.70
2009,02,12,18,05,3.70
2009,02,12,18,06,3.70
2009,02,12,18,07,3.70
2009,02,12,18,08,3.70
2009,02,12,18,09,3.70
2009,02,12,18,10,3.70
2009,02,12,18,11,3.70
2009,02,12,18,12,3.70
2009,02,12,18,13,3.70
2009,02,12,18,14,3.70
2009,02,12,18,15,3.70
2009,02,12,18,16,3.70
2009,02,12,18,17,3.60
2009,02,12,18,18,3.70
2009,02,12,18,19,3.60
2009,02,12,18,20,3.70
2009,02,12,18,21,3.70
2009,02,12,18,22,3.70
2009,02,12,18,23,3.70
2009,02,12,18,24,3.70
2009,02,12,18,25,3.70
2009,02,12,18,26,3.70